When you browse on this site, cookies collect data to enhance your experience and personalize the content and advertising you see.
Visit our Privacy Policy to learn more. By continuing to use the site, you agree to this use of cookies and data.
  • In Germany
  • List of Countries
  • For 7 days
  • Water Temperature
  • Weather Map
  • Weather Widgets
  • user-avatar
    Login

    Hourly Weather Majdan

    Today, 16 September, Monday

    Time Temperature Precipitation Wind Pressure Humidity
    00:00 +17°C° 0 mm 5 mps 751 mmHg 52%
    01:00 +17°C° 0 mm 5 mps 751 mmHg 49%
    02:00 +16°C° 0 mm 5 mps 751 mmHg 53%
    03:00 +16°C° 0 mm 5 mps 751 mmHg 58%
    04:00 +16°C° 0 mm 5 mps 751 mmHg 63%
    05:00 +15°C° 0 mm 5 mps 751 mmHg 64%
    06:00 +14°C° 0 mm 6 mps 751 mmHg 64%
    07:00 +14°C° 0 mm 6 mps 751 mmHg 65%
    08:00 +14°C° 0 mm 7 mps 751 mmHg 63%
    09:00 +14°C° 0 mm 7 mps 751 mmHg 60%
    10:00 +15°C° 0 mm 7 mps 752 mmHg 58%
    11:00 +15°C° 0 mm 7 mps 752 mmHg 57%
    12:00 +15°C° 0 mm 7 mps 752 mmHg 56%
    13:00 +15°C° 0 mm 6 mps 752 mmHg 55%
    14:00 +15°C° 0 mm 6 mps 751 mmHg 54%
    15:00 +16°C° 0 mm 6 mps 751 mmHg 53%
    16:00 +16°C° 0 mm 5 mps 751 mmHg 51%
    17:00 +15°C° 0 mm 5 mps 751 mmHg 54%
    18:00 +14°C° 0 mm 5 mps 751 mmHg 57%
    19:00 +13°C° 0 mm 5 mps 751 mmHg 59%
    20:00 +12°C° 0 mm 4 mps 751 mmHg 63%
    21:00 +11°C° 0 mm 4 mps 751 mmHg 66%
    22:00 +10°C° 0 mm 4 mps 750 mmHg 69%
    23:00 +10°C° 0 mm 4 mps 750 mmHg 70%

    Tomorrow, 17 September, Tuesday

    Time Temperature Precipitation Wind Pressure Humidity
    00:00 +10°C° 0 mm 4 mps 751 mmHg 72%
    01:00 +8°C° 0 mm 4 mps 751 mmHg 73%
    02:00 +8°C° 0 mm 4 mps 750 mmHg 75%
    03:00 +8°C° 0 mm 4 mps 750 mmHg 77%
    04:00 +8°C° 0 mm 4 mps 750 mmHg 79%
    05:00 +8°C° 0 mm 5 mps 750 mmHg 76%
    06:00 +9°C° 0 mm 5 mps 749 mmHg 74%
    07:00 +10°C° 0 mm 6 mps 749 mmHg 72%
    08:00 +11°C° 0 mm 6 mps 749 mmHg 67%
    09:00 +13°C° 0 mm 6 mps 749 mmHg 61%
    10:00 +14°C° 0 mm 7 mps 749 mmHg 56%
    11:00 +14°C° 0.2 mm 7 mps 748 mmHg 56%
    12:00 +14°C° 0.2 mm 7 mps 747 mmHg 55%
    13:00 +15°C° 0.2 mm 8 mps 747 mmHg 54%
    14:00 +13°C° 0.3 mm 8 mps 746 mmHg 55%
    15:00 +13°C° 0.3 mm 8 mps 746 mmHg 57%
    16:00 +13°C° 0.3 mm 8 mps 746 mmHg 59%
    17:00 +11°C° 0.8 mm 6 mps 745 mmHg 67%
    18:00 +10°C° 0.8 mm 5 mps 745 mmHg 74%
    19:00 +8°C° 0.8 mm 4 mps 745 mmHg 82%
    20:00 +8°C° 0.2 mm 5 mps 745 mmHg 81%
    21:00 +8°C° 0.2 mm 5 mps 745 mmHg 79%
    22:00 +7°C° 0.2 mm 6 mps 745 mmHg 78%
    23:00 +7°C° 0.1 mm 6 mps 745 mmHg 78%

    Day after tomorrow, 18 September, Wednesday

    Time Temperature Precipitation Wind Pressure Humidity
    00:00 +5°C° 0.1 mm 7 mps 745 mmHg 78%
    01:00 +5°C° 0.1 mm 7 mps 745 mmHg 78%
    02:00 +5°C° 0 mm 7 mps 746 mmHg 79%
    03:00 +5°C° 0 mm 8 mps 746 mmHg 80%
    04:00 +5°C° 0 mm 8 mps 747 mmHg 80%
    05:00 +5°C° 0.2 mm 8 mps 747 mmHg 80%
    06:00 +6°C° 0.2 mm 8 mps 748 mmHg 80%
    07:00 +7°C° 0.2 mm 8 mps 749 mmHg 80%
    08:00 +9°C° 0 mm 8 mps 749 mmHg 73%
    09:00 +10°C° 0 mm 8 mps 750 mmHg 67%
    10:00 +11°C° 0 mm 9 mps 751 mmHg 61%
    11:00 +12°C° 0 mm 9 mps 751 mmHg 57%
    12:00 +12°C° 0 mm 9 mps 751 mmHg 53%
    13:00 +13°C° 0 mm 9 mps 751 mmHg 49%
    14:00 +13°C° 0.1 mm 8 mps 752 mmHg 51%
    15:00 +13°C° 0.1 mm 8 mps 752 mmHg 54%
    16:00 +14°C° 0.1 mm 7 mps 752 mmHg 56%
    17:00 +11°C° 0.2 mm 6 mps 752 mmHg 62%
    18:00 +10°C° 0.2 mm 6 mps 753 mmHg 68%
    19:00 +9°C° 0.2 mm 5 mps 753 mmHg 74%
    20:00 +8°C° 0.1 mm 4 mps 753 mmHg 78%
    21:00 +8°C° 0.1 mm 4 mps 754 mmHg 81%
    22:00 +7°C° 0.1 mm 4 mps 754 mmHg 85%
    23:00 +7°C° 0 mm 4 mps 754 mmHg 85%

    19 September, Thursday

    Time Temperature Precipitation Wind Pressure Humidity
    00:00 +7°C° 0 mm 4 mps 754 mmHg 86%
    01:00 +7°C° 0 mm 4 mps 754 mmHg 87%
    02:00 +6°C° 0 mm 4 mps 754 mmHg 88%
    03:00 +6°C° 0 mm 4 mps 754 mmHg 90%
    04:00 +5°C° 0 mm 4 mps 754 mmHg 91%
    05:00 +6°C° 0 mm 4 mps 754 mmHg 90%
    06:00 +6°C° 0 mm 4 mps 755 mmHg 88%
    07:00 +7°C° 0 mm 4 mps 755 mmHg 87%
    08:00 +8°C° 0 mm 4 mps 755 mmHg 82%
    09:00 +10°C° 0 mm 4 mps 755 mmHg 77%
    10:00 +11°C° 0 mm 4 mps 756 mmHg 71%
    11:00 +12°C° 0.4 mm 5 mps 756 mmHg 66%
    12:00 +13°C° 0.4 mm 6 mps 756 mmHg 62%
    13:00 +14°C° 0.4 mm 6 mps 756 mmHg 57%
    14:00 +13°C° 0.4 mm 6 mps 756 mmHg 58%
    15:00 +13°C° 0.4 mm 6 mps 756 mmHg 60%
    16:00 +13°C° 0.4 mm 5 mps 756 mmHg 62%
    17:00 +10°C° 0 mm 5 mps 757 mmHg 66%
    18:00 +9°C° 0 mm 5 mps 757 mmHg 71%
    19:00 +8°C° 0 mm 4 mps 758 mmHg 75%
    20:00 +7°C° 0 mm 4 mps 758 mmHg 77%
    21:00 +6°C° 0 mm 4 mps 759 mmHg 80%
    22:00 +6°C° 0 mm 4 mps 759 mmHg 82%
    23:00 +6°C° 0 mm 4 mps 759 mmHg 83%

    20 September, Friday

    Time Temperature Precipitation Wind Pressure Humidity
    00:00 +5°C° 0 mm 3 mps 760 mmHg 84%
    01:00 +5°C° 0 mm 3 mps 760 mmHg 84%
    02:00 +5°C° 0 mm 3 mps 760 mmHg 84%
    03:00 +4°C° 0 mm 3 mps 760 mmHg 83%
    04:00 +4°C° 0 mm 3 mps 760 mmHg 83%
    05:00 +5°C° 0 mm 3 mps 760 mmHg 80%
    06:00 +5°C° 0 mm 3 mps 760 mmHg 77%
    07:00 +7°C° 0 mm 3 mps 760 mmHg 75%
    08:00 +8°C° 0 mm 4 mps 760 mmHg 68%
    09:00 +10°C° 0 mm 4 mps 760 mmHg 61%
    10:00 +12°C° 0 mm 4 mps 760 mmHg 54%
    11:00 +12°C° 0 mm 4 mps 760 mmHg 51%
    12:00 +13°C° 0 mm 4 mps 760 mmHg 48%
    13:00 +14°C° 0 mm 4 mps 760 mmHg 46%
    14:00 +13°C° 0 mm 4 mps 760 mmHg 47%
    15:00 +13°C° 0 mm 4 mps 760 mmHg 48%
    16:00 +13°C° 0 mm 4 mps 759 mmHg 49%
    17:00 +12°C° 0 mm 3 mps 759 mmHg 52%
    18:00 +12°C° 0 mm 2 mps 760 mmHg 55%
    19:00 +9°C° 0 mm 2 mps 760 mmHg 59%
    20:00 +9°C° 0 mm 2 mps 759 mmHg 58%
    21:00 +10°C° 0 mm 2 mps 759 mmHg 58%
    22:00 +10°C° 0 mm 2 mps 759 mmHg 57%
    23:00 +10°C° 0.1 mm 3 mps 759 mmHg 60%

    21 September, Saturday

    Time Temperature Precipitation Wind Pressure Humidity
    00:00 +10°C° 0.1 mm 3 mps 759 mmHg 62%
    01:00 +10°C° 0.1 mm 4 mps 758 mmHg 65%
    02:00 +10°C° 0.3 mm 4 mps 758 mmHg 70%
    03:00 +9°C° 0.3 mm 5 mps 758 mmHg 75%
    04:00 +10°C° 0.3 mm 5 mps 758 mmHg 80%
    05:00 +10°C° 0.1 mm 5 mps 758 mmHg 83%
    06:00 +10°C° 0.1 mm 5 mps 757 mmHg 85%
    07:00 +12°C° 0.1 mm 5 mps 757 mmHg 87%
    08:00 +12°C° 0.1 mm 4 mps 758 mmHg 87%
    09:00 +13°C° 0.1 mm 4 mps 758 mmHg 86%
    10:00 +14°C° 0.1 mm 4 mps 758 mmHg 85%
    11:00 +14°C° 0.3 mm 3 mps 758 mmHg 84%
    12:00 +14°C° 0.3 mm 3 mps 758 mmHg 83%
    13:00 +14°C° 0.3 mm 3 mps 758 mmHg 82%
    14:00 +16°C° 0.2 mm 3 mps 758 mmHg 80%
    15:00 +16°C° 0.2 mm 3 mps 758 mmHg 78%
    16:00 +17°C° 0.2 mm 2 mps 758 mmHg 76%
    17:00 +16°C° 0 mm 2 mps 759 mmHg 80%
    18:00 +15°C° 0 mm 2 mps 759 mmHg 83%
    19:00 +14°C° 0 mm 2 mps 759 mmHg 86%
    20:00 +13°C° 0 mm 1 mps 759 mmHg 87%
    21:00 +12°C° 0 mm 1 mps 759 mmHg 88%
    22:00 +12°C° 0 mm 1 mps 760 mmHg 89%
    23:00 +12°C° 0 mm 1 mps 760 mmHg 89%
    Show more